Location: Ecklingerode
(51.5036°N, 10.3122°E)
Time: 07:41:17
(UTC+00:00)

Cosmos 1953 Rocket - Pass Details

Date: 29 October 2020
Orbit: 605 x 634 km, 82.5° (Epoch: 01 December)

Event Time Altitude Azimuth Distance (km) Brightness Sun altitude
Rises 16:31:19 0° 351° (N) 2,905 7.0 -6.0°
Reaches altitude 10° 16:33:34 10° 354° (N) 1,999 6.1 -6.3°
Maximum altitude 16:37:59 66° 77° (ENE) 685 3.6 -7.0°
Drops below altitude 10° 16:42:23 10° 160° (SSE) 2,000 6.1 -7.7°
Sets 16:44:38 0° 164° (SSE) 2,907 7.0 -8.0°
